Regional Weather Roundup
Issued by NWS

Home | Current Version | Previous Version | Text Only | Print | Product List | Glossary On
Versions: 1 2 3 4 5 6 7 8 9 10 11 12 13 14 15 16 17 18 19 20 21 22 23 24 25 26 27 28 29 30 31 32 33 34 35 36 37 38 39 40 41 42 43 44 45 46 47 48 49 50
000
ASUS43 KMKX 272011
RWRWI

WISCONSIN REGIONAL WEATHER ROUNDUP
NATIONAL WEATHER SERVICE MILWAUKEE/SULLIVAN WI
300 PM CDT SAT MAY 27 2017

NOTE: "FAIR" INDICATES FEW OR NO CLOUDS BELOW 12,000 FEET WITH NO
SIGNIFICANT WEATHER AND/OR OBSTRUCTIONS TO VISIBILITY.

WIZ001-002-006>008-014>016-023>028-272100-
NORTHWEST WISCONSIN

CITY           SKY/WX    TMP DP  RH WIND       PRES   REMARKS
SUPERIOR ARPT  NOT AVBL
ASHLAND        CLOUDY    71  43  36 W12       29.85F
HAYWARD        CLOUDY    69  43  38 SW10      29.88S
SIREN          PTSUNNY   70  42  37 CALM      29.88F
CUMBERLAND     CLOUDY    68  43  40 W10       29.89F
RICE LAKE      CLOUDY    69  43  38 SW9       29.91S
CHETEK         CLOUDY    68  47  46 W7        29.89F
LADYSMITH      CLOUDY    68  48  48 W10       29.91S
EAU CLAIRE     CLOUDY    68  47  46 NW10      29.89R
MENOMONIE      CLOUDY    66  48  51 W5        29.89F
NEW RICHMOND   CLOUDY    70  42  36 NW8       29.88F
OSCEOLA        CLOUDY    71  42  35 SW3       29.91F
$$

WIZ003>005-009-010-017-018-272100-
NORTH CENTRAL WISCONSIN

CITY           SKY/WX    TMP DP  RH WIND       PRES   REMARKS
MANITOWISH WTR CLOUDY    70  46  40 SW12G20   29.85S
ARBOR VITAE    CLOUDY    72  47  41 W8G16     29.85S
WOODRUFF       CLOUDY    72  47  41 W8G16     29.85S
RHINELANDER    CLOUDY    76  47  35 W15       29.86S
EAGLE RIVER    MOSUNNY   72  41  32 SW8G21    29.84S
LAND O LAKES   SUNNY     75  41  28 W7        29.85S
PHILLIPS       PTSUNNY   69  46  44 SW9       29.88R
TOMAHAWK       MOSUNNY   72  46  38 W10       29.88R
MEDFORD        DRIZZLE   66  49  53 W12G18    29.89S
MERRILL        PTSUNNY   72  49  45 W16       29.88R
$$

WIZ029-030-035-036-043>047-272100-
CENTRAL WISCONSIN

CITY           SKY/WX    TMP DP  RH WIND       PRES   REMARKS
WAUSAU         CLOUDY    72  50  45 W13       29.86R
MOSINEE        MOSUNNY   73  52  46 W16       29.89R
MARSHFIELD     CLOUDY    72  49  44 W10       29.88R
STEVENS POINT  CLOUDY    73  49  42 W8        29.88R
WAUPACA        CLOUDY    77  58  52 SW8G18    29.86R
WAUTOMA        PTSUNNY   77  59  53 SW12      29.86S
WISC RAPIDS    CLOUDY    76  50  40 W10       29.88S
CAMP DOUGLAS   PTSUNNY   74  56  51 W12G18    29.88S
$$

WIZ011>013-019>022-031-037>040-048>050-272100-
NORTHEAST WISCONSIN

CITY           SKY/WX    TMP DP  RH WIND       PRES   REMARKS
ANTIGO         MOSUNNY   72  51  48 W12G21    29.87R
SHAWANO        CLOUDY    77  57  49 S5        29.85S
OCONTO         PTSUNNY   74  55  50 S13       29.84S
STURGEON BAY   CLOUDY    72  53  51 S13       29.87S
GREEN BAY      PTSUNNY   75  59  57 SW12      29.86F
MANITOWOC      MOSUNNY   67  50  54 S15       29.88F
APPLETON       PTSUNNY   73  54  49 S13       29.85F
CLINTONVILLE   CLOUDY    75  52  43 SW7       29.85S
OSHKOSH        CLOUDY    74  57  55 SW10G17   29.86F
$$

WIZ032>034-041-042-053>061-272100-
SOUTHWEST WISCONSIN

CITY           SKY/WX    TMP DP  RH WIND       PRES   REMARKS
LA CROSSE      CLOUDY    76  52  43 N6        29.87F
SPARTA         PTSUNNY   73  52  47 NW9       29.89F
VIROQUA        CLOUDY    72  50  46 SW8       29.90F
BOSCOBEL       CLOUDY    75  58  55 SW3       29.87F
PRAIRIE DU CHI CLOUDY    72  57  58 S3        29.87F
PLATTEVILLE    CLOUDY    71  63  74 W5        29.90S
$$

WIZ056-057-062-063-064-067-068-272100-
SOUTH CENTRAL WISCONSIN

CITY           SKY/WX    TMP DP  RH WIND       PRES   REMARKS
REEDSBURG      CLOUDY    71  58  64 SW8       29.89S
BARABOO/DELLS  CLOUDY    71  57  61 SW6       29.89F
LONE ROCK      CLOUDY    74  56  53 CALM      29.87F
MINERAL POINT  CLOUDY    72  63  73 W9        29.89F
MADISON        CLOUDY    72  59  63 VRB6      29.88F
MIDDLETON      CLOUDY    74  60  62 SW6       29.90S
WATERTOWN      CLOUDY    74  59  60 SW3       29.88F
MONROE         CLOUDY    73  57  56 SW5       29.89F
JANESVILLE     MOSUNNY   75  59  57 SW8       29.88F
$$

WIZ051-052-058>065-066-070>072-272100-
SOUTHEAST WISCONSIN

CITY           SKY/WX    TMP DP  RH WIND       PRES   REMARKS
MILWAUKEE      PTSUNNY   69  54  58 SE12      29.89F
WAUKESHA       MOSUNNY   72  55  56 SW8       29.90F
MILWAUKEE/TIMM MOSUNNY   73  52  46 SE7       29.89F
RACINE         SUNNY     67  51  56 SE12      29.91F
KENOSHA        SUNNY     71  56  58 E9        29.89F
FOND DU LAC    MOSUNNY   74  54  49 SW9       29.88F
SHEBOYGAN      MOSUNNY   70  56  61 S12       29.88F
WEST BEND      MOSUNNY   72  57  60 NW3       29.88F
JUNEAU         CLOUDY    72  58  60 SW10      29.90S
$$

LSZ147-162-272100-
LAKE SUPERIOR

STATION/POSITION TIME  TEMP    WIND        PRES    WAVE
                       AIR SEA DIR/SP/G            HT/PER
                 (UTC) (F)     (DEG/KT/KT) (MB)    (FT/S)
W MID LAKE BUOY  1950   43 38  220/  6/  6 1010.7F   0
DEVILS ISLAND    2000   65     220/ 12/ 14 1010.0F
SAXON HARBOR     1940   67      60/  5/  6 1010.5S
$$

LMZ867-665-643>646-272100-
LAKE MICHIGAN

STATION/POSITION TIME  TEMP    WIND        PRES    WAVE
                       AIR SEA DIR/SP/G            HT/PER
                 (UTC) (F)     (DEG/KT/KT) (MB)    (FT/S)
CHAMBERS ISLAND  1940   72     150/  6/ 16 1010.5F
N MID LAKE BUOY  1950   47 43  200/  8/ 10 1012.9F   0
NORTHPORT PIER   1940   66     150/ 10/ 14 1011.2F
KEWAUNEE LAKESHO 1948   54     170/ 10/ 12 1011.5F
SHEBOYGAN LAKESH 2000   52     170/ 11/ 11 1012.0F
PORT WASHINGTON  1940   62     180/  3/  5 1013.2F
ATWATER BUOY     1909   53     160/  4/  4 1012.6F
MILWAUKEE LAKESH 1950   57     140/  2/  3   N/A
S MID LAKE BUOY  1950   52 50  320/  4/  4 1013.6R   0
KENOSHA   LAKESH 2000   60     130/  7/  9 1012.5
$$

TC  - TEMPERATURE IN CELSIUS
VSB - VISIBILITY IN STATUTE MILES
WCI - WIND CHILL INDEX
HX  - HEAT INDEX





USA.gov is the U.S. government's official web portal to all federal, state and local government web resources and services.